Location: Madden
(51.3728°N, 114.3297°W)
Time: 17:15:57
(UTC+00:00)

CUTE-I - Pass Details

Date: 12 December 2023
Orbit: 807 x 823 km, 98.7° (Epoch: 03 March)

Event Time Altitude Azimuth Distance (km) Brightness Sun altitude
Rises 12:42:20 0° 26° (NNE) 3,368 ? -25.3°
Reaches altitude 10° 12:45:27 10° 45° (NE) 2,432 ? -24.8°
Maximum altitude 12:49:08 19° 88° (E) 1,896 ? -24.2°
Drops below altitude 10° 12:52:49 10° 132° (SE) 2,422 ? -23.7°
Sets 12:55:53 0° 150° (SSE) 3,349 ? -23.2°
